Location: Biharia
(46.4333°N, 22.8000°E)
Time: 16:43:23
(UTC+00:00)

FENGYUN 1C DEB - Pass Details

Date: 18 August 2022
Orbit: 796 x 915 km, 98.9° (Epoch: 24 September)

Event Time Altitude Azimuth Distance (km) Brightness Sun altitude
Rises 23:27:39 0° 14° (NNE) 3,416 ? -29.4°
Reaches altitude 10° 23:30:03 10° 14° (NNE) 2,459 ? -29.3°
Enters shadow 23:35:02 75° 10° (N) 852 ? -29.1°
